This is the latest recevied weather packets stored in our database for station/object KB1YYC. If no packets are shown the sender has not sent any weather packets the latest 10 day(s).
| Time | Temp. | Humidity | Pressure | Rain* | Wind** | Luminosity | Snow |
|---|---|---|---|---|---|---|---|
| 1778030321 | 18.89° C | 67% | 1008.7 hPa | 0 mm | - | 0 W/m² | - |
| 1778030017 | 18.89° C | 67% | 1008.7 hPa | 0 mm | - | 0 W/m² | - |
| 1778029715 | 18.89° C | 67% | 1008.7 hPa | 0 mm | - | 0 W/m² | - |
| 1778029413 | 18.89° C | 66% | 1008.4 hPa | 0 mm | - | 0 W/m² | - |
| 1778029109 | 18.89° C | 66% | 1008.5 hPa | 0 mm | - | 0 W/m² | - |
| 1778028806 | 18.89° C | 67% | 1008.4 hPa | 0 mm | - | 0 W/m² | - |
| 1778028502 | 19.44° C | 66% | 1008.3 hPa | 0 mm | - | 0 W/m² | - |
| 1778028200 | 19.44° C | 66% | 1008.2 hPa | 0 mm | - | 0 W/m² | - |
| 1778027896 | 18.89° C | 67% | 1008 hPa | 0 mm | - | 0 W/m² | - |
| 1778027592 | 18.89° C | 68% | 1008.1 hPa | 0 mm | - | 0 W/m² | - |
| 1778027288 | 18.89° C | 69% | 1008.1 hPa | 0 mm | - | 0 W/m² | - |
| 1778026985 | 18.89° C | 69% | 1008.1 hPa | 0 mm | - | 0 W/m² | - |
| 1778026681 | 18.89° C | 69% | 1008 hPa | 0 mm | - | 0 W/m² | - |
| 1778026378 | 19.44° C | 69% | 1008 hPa | 0 mm | - | 0 W/m² | - |
| 1778026075 | 19.44° C | 68% | 1007.7 hPa | 0 mm | - | 0 W/m² | - |
| 1778025773 | 19.44° C | 67% | 1007.8 hPa | 0 mm | - | 0 W/m² | - |
| 1778025470 | 19.44° C | 67% | 1007.3 hPa | 0 mm | - | 0 W/m² | - |
| 1778025167 | 19.44° C | 68% | 1007.2 hPa | 0 mm | - | 0 W/m² | - |
| 1778024864 | 20° C | 67% | 1006.8 hPa | 0 mm | - | 0 W/m² | - |
| 1778024562 | 20° C | 65% | 1006.6 hPa | 0 mm | - | 1 W/m² | - |
| 1778024258 | 20° C | 66% | 1006.5 hPa | 0 mm | - | 3 W/m² | - |
| 1778023956 | 20° C | 66% | 1006.5 hPa | 0 mm | - | 5 W/m² | - |
| 1778023653 | 20° C | 64% | 1006.4 hPa | 0 mm | - | 4 W/m² | - |
| 1778023350 | 20.56° C | 63% | 1006.1 hPa | 0 mm | - | 7 W/m² | - |
| 1778023047 | 20.56° C | 62% | 1006.3 hPa | 0 mm | - | 5 W/m² | - |
* Rain latest hour (hover to see other rain measurements)
** Current wind speed in m/s (hover to see current wind gust speed)